Time,TemperatureF,DewpointF,PressureIn,WindDirection,WindDirectionDegrees,WindSpeedMPH,WindSpeedGustMPH,Humidity,HourlyPrecipIn,Conditions,Clouds,dailyrainin,SolarRadiationWatts/m^2,SoftwareType,DateUTC
2013-01-15 00:00:00,42.7,41.6,30.24,NE,52,2.0,3.0,96,0.09,,---,1.27,0.00,VWS V14.01,2013-01-15 05:00:00,
2013-01-15 00:04:00,42.7,41.6,30.23,NE,52,0.0,3.0,96,0.10,,---,0.00,0.00,VWS V14.01,2013-01-15 05:04:00,
2013-01-15 00:09:00,42.6,41.5,30.22,NE,52,0.0,3.0,96,0.11,,---,0.01,0.00,VWS V14.01,2013-01-15 05:09:00,
2013-01-15 00:14:00,42.6,41.5,30.23,NE,52,0.0,3.0,96,0.12,,---,0.02,0.00,VWS V14.01,2013-01-15 05:14:00,
2013-01-15 00:19:00,42.5,41.4,30.23,NE,52,0.0,3.0,96,0.12,,---,0.02,0.00,VWS V14.01,2013-01-15 05:19:00,
2013-01-15 00:24:00,42.6,41.5,30.23,NE,52,2.0,3.0,96,0.12,,---,0.02,0.00,VWS V14.01,2013-01-15 05:24:00,
2013-01-15 00:29:00,42.5,41.4,30.23,NE,52,0.0,3.0,96,0.13,,---,0.03,0.00,VWS V14.01,2013-01-15 05:29:00,
2013-01-15 00:30:00,42.5,41.4,30.23,NE,52,0.0,3.0,96,0.13,,---,0.03,0.00,VWS V14.01,2013-01-15 05:30:00,
2013-01-15 00:34:00,42.5,41.4,30.23,NE,52,1.0,1.0,96,0.13,,---,0.03,0.00,VWS V14.01,2013-01-15 05:34:00,
2013-01-15 00:39:00,42.5,41.4,30.23,NE,52,0.0,1.0,96,0.14,,---,0.04,0.00,VWS V14.01,2013-01-15 05:39:00,
2013-01-15 00:44:00,42.5,41.4,30.23,NE,52,0.0,1.0,96,0.16,,---,0.06,0.00,VWS V14.01,2013-01-15 05:44:00,
2013-01-15 00:49:00,42.4,41.3,30.23,NE,52,0.0,1.0,96,0.17,,---,0.07,0.00,VWS V14.01,2013-01-15 05:49:00,
2013-01-15 00:54:00,42.4,41.3,30.24,NE,52,0.0,1.0,96,0.18,,---,0.08,0.00,VWS V14.01,2013-01-15 05:54:00,
2013-01-15 00:59:00,42.3,41.2,30.24,NE,52,0.0,1.0,96,0.18,,---,0.08,0.00,VWS V14.01,2013-01-15 05:59:00,
2013-01-15 01:00:00,42.3,41.2,30.24,NE,52,0.0,1.0,96,0.19,,---,0.09,0.00,VWS V14.01,2013-01-15 06:00:00,
2013-01-15 01:04:00,42.3,41.2,30.23,NE,52,0.0,0.0,96,0.09,,---,0.09,0.00,VWS V14.01,2013-01-15 06:04:00,
2013-01-15 01:09:00,42.3,41.2,30.23,NE,52,0.0,0.0,96,0.10,,---,0.10,0.00,VWS V14.01,2013-01-15 06:09:00,
2013-01-15 01:14:00,42.3,41.2,30.23,NE,52,0.0,1.0,96,0.11,,---,0.11,0.00,VWS V14.01,2013-01-15 06:14:00,
2013-01-15 01:19:00,42.2,41.1,30.23,NE,52,0.0,1.0,96,0.12,,---,0.12,0.00,VWS V14.01,2013-01-15 06:19:00,
2013-01-15 01:24:00,42.2,41.1,30.22,NE,52,0.0,1.0,96,0.13,,---,0.13,0.00,VWS V14.01,2013-01-15 06:24:00,
2013-01-15 01:29:00,42.1,41.0,30.22,NE,52,0.0,1.0,96,0.13,,---,0.13,0.00,VWS V14.01,2013-01-15 06:29:00,
2013-01-15 01:30:00,42.1,41.0,30.23,NE,52,0.0,1.0,96,0.13,,---,0.13,0.00,VWS V14.01,2013-01-15 06:30:00,
2013-01-15 01:34:00,42.1,41.0,30.23,NE,52,0.0,0.0,96,0.10,,---,0.13,0.00,VWS V14.01,2013-01-15 06:34:00,
2013-01-15 01:39:00,42.0,40.9,30.23,NE,52,0.0,0.0,96,0.11,,---,0.14,0.00,VWS V14.01,2013-01-15 06:39:00,
2013-01-15 01:44:00,42.0,40.9,30.22,NE,52,0.0,0.0,96,0.11,,---,0.14,0.00,VWS V14.01,2013-01-15 06:44:00,
2013-01-15 01:49:00,42.0,40.9,30.22,NE,52,0.0,0.0,96,0.12,,---,0.15,0.00,VWS V14.01,2013-01-15 06:49:00,
2013-01-15 01:54:00,41.9,40.8,30.22,NE,52,0.0,0.0,96,0.12,,---,0.15,0.00,VWS V14.01,2013-01-15 06:54:00,
2013-01-15 01:59:00,41.9,40.8,30.22,NE,52,0.0,0.0,96,0.13,,---,0.16,0.00,VWS V14.01,2013-01-15 06:59:00,
2013-01-15 02:00:00,41.9,40.8,30.22,NE,52,0.0,0.0,96,0.13,,---,0.16,0.00,VWS V14.01,2013-01-15 07:00:00,
2013-01-15 02:04:00,41.9,40.8,30.22,NE,52,0.0,0.0,96,0.07,,---,0.16,0.00,VWS V14.01,2013-01-15 07:04:00,
2013-01-15 02:09:00,41.9,40.8,30.22,NE,52,0.0,0.0,96,0.07,,---,0.16,0.00,VWS V14.01,2013-01-15 07:09:00,
2013-01-15 02:14:00,41.9,40.8,30.21,NE,52,0.0,0.0,96,0.08,,---,0.17,0.00,VWS V14.01,2013-01-15 07:14:00,
2013-01-15 02:19:00,41.9,40.8,30.22,NE,52,0.0,0.0,96,0.08,,---,0.17,0.00,VWS V14.01,2013-01-15 07:19:00,
2013-01-15 02:24:00,41.9,40.8,30.22,NE,52,0.0,0.0,96,0.09,,---,0.18,0.00,VWS V14.01,2013-01-15 07:24:00,
2013-01-15 02:30:00,41.8,40.8,30.22,NE,52,0.0,0.0,96,0.10,,---,0.19,0.00,VWS V14.01,2013-01-15 07:30:00,
2013-01-15 02:35:00,41.9,40.8,30.22,NE,52,0.0,0.0,96,0.06,,---,0.19,0.00,VWS V14.01,2013-01-15 07:35:00,
2013-01-15 02:40:00,41.9,41.1,30.22,NE,52,0.0,0.0,97,0.07,,---,0.20,0.00,VWS V14.01,2013-01-15 07:40:00,
2013-01-15 02:45:00,41.9,41.1,30.22,NE,52,0.0,0.0,97,0.07,,---,0.20,0.00,VWS V14.01,2013-01-15 07:45:00,
2013-01-15 02:50:00,41.9,41.1,30.21,NE,52,0.0,0.0,97,0.08,,---,0.21,0.00,VWS V14.01,2013-01-15 07:50:00,
2013-01-15 02:55:00,41.9,41.1,30.21,NE,52,0.0,0.0,97,0.08,,---,0.21,0.00,VWS V14.01,2013-01-15 07:55:00,
2013-01-15 03:00:00,41.9,41.1,30.21,NE,52,0.0,0.0,97,0.08,,---,0.21,0.00,VWS V14.01,2013-01-15 08:00:00,
2013-01-15 03:05:00,41.9,41.1,30.20,NE,52,0.0,0.0,97,0.06,,---,0.22,0.00,VWS V14.01,2013-01-15 08:05:00,
2013-01-15 03:10:00,41.9,41.1,30.20,NE,52,0.0,0.0,97,0.06,,---,0.22,0.00,VWS V14.01,2013-01-15 08:10:00,
2013-01-15 03:15:00,41.9,41.1,30.19,NE,52,0.0,0.0,97,0.06,,---,0.22,0.00,VWS V14.01,2013-01-15 08:15:00,
2013-01-15 03:20:00,41.9,41.1,30.20,NE,52,0.0,0.0,97,0.06,,---,0.22,0.00,VWS V14.01,2013-01-15 08:20:00,
2013-01-15 03:25:00,41.9,41.1,30.20,NE,52,0.0,0.0,97,0.07,,---,0.23,0.00,VWS V14.01,2013-01-15 08:25:00,
2013-01-15 03:30:00,41.9,41.1,30.20,NE,52,0.0,0.0,97,0.07,,---,0.23,0.00,VWS V14.01,2013-01-15 08:30:00,
2013-01-15 03:35:00,41.9,41.1,30.19,NE,52,0.0,0.0,97,0.04,,---,0.23,0.00,VWS V14.01,2013-01-15 08:35:00,
2013-01-15 03:41:00,41.9,41.1,30.19,NE,52,0.0,0.0,97,0.04,,---,0.23,0.00,VWS V14.01,2013-01-15 08:41:00,
2013-01-15 03:46:00,42.0,41.2,30.19,NE,52,0.0,0.0,97,0.04,,---,0.23,0.00,VWS V14.01,2013-01-15 08:46:00,
2013-01-15 03:51:00,42.0,41.2,30.19,NE,52,0.0,0.0,97,0.04,,---,0.23,0.00,VWS V14.01,2013-01-15 08:51:00,
2013-01-15 03:56:00,42.0,41.2,30.19,NE,52,0.0,0.0,97,0.05,,---,0.24,0.00,VWS V14.01,2013-01-15 08:56:00,
2013-01-15 04:00:00,42.0,41.2,30.19,NE,52,0.0,0.0,97,0.06,,---,0.25,0.00,VWS V14.01,2013-01-15 09:00:00,
2013-01-15 04:01:00,42.0,41.2,30.19,NE,52,0.0,0.0,97,0.06,,---,0.25,0.00,VWS V14.01,2013-01-15 09:01:00,
2013-01-15 04:06:00,42.0,41.2,30.19,NE,52,0.0,0.0,97,0.04,,---,0.25,0.00,VWS V14.01,2013-01-15 09:06:00,
2013-01-15 04:11:00,42.0,41.2,30.18,NE,52,0.0,0.0,97,0.04,,---,0.25,0.00,VWS V14.01,2013-01-15 09:11:00,
2013-01-15 04:16:00,42.0,41.2,30.18,NE,52,0.0,0.0,97,0.04,,---,0.25,0.00,VWS V14.01,2013-01-15 09:16:00,
2013-01-15 04:21:00,42.0,41.2,30.18,NE,52,0.0,0.0,97,0.05,,---,0.26,0.00,VWS V14.01,2013-01-15 09:21:00,
2013-01-15 04:26:00,42.0,41.2,30.18,NE,52,0.0,0.0,97,0.05,,---,0.26,0.00,VWS V14.01,2013-01-15 09:26:00,
2013-01-15 04:30:00,42.0,41.2,30.18,NE,52,0.0,0.0,97,0.06,,---,0.27,0.00,VWS V14.01,2013-01-15 09:30:00,
2013-01-15 04:31:00,42.0,41.2,30.18,NE,52,0.0,0.0,97,0.06,,---,0.27,0.00,VWS V14.01,2013-01-15 09:31:00,
2013-01-15 04:36:00,42.1,41.3,30.18,NE,52,0.0,0.0,97,0.04,,---,0.27,0.00,VWS V14.01,2013-01-15 09:36:00,
2013-01-15 04:41:00,42.1,41.3,30.18,NE,52,0.0,1.0,97,0.06,,---,0.29,0.00,VWS V14.01,2013-01-15 09:41:00,
2013-01-15 04:46:00,42.1,41.3,30.18,NE,52,0.0,1.0,97,0.06,,---,0.29,0.00,VWS V14.01,2013-01-15 09:46:00,
2013-01-15 04:51:00,42.2,41.4,30.18,NE,52,0.0,1.0,97,0.07,,---,0.30,0.00,VWS V14.01,2013-01-15 09:51:00,
2013-01-15 04:56:00,42.2,41.4,30.18,NE,52,0.0,1.0,97,0.09,,---,0.32,0.00,VWS V14.01,2013-01-15 09:56:00,
2013-01-15 05:00:00,42.2,41.4,30.18,NE,52,0.0,1.0,97,0.10,,---,0.33,0.00,VWS V14.01,2013-01-15 10:00:00,
2013-01-15 05:01:00,42.2,41.4,30.18,NE,52,0.0,1.0,97,0.10,,---,0.33,0.00,VWS V14.01,2013-01-15 10:01:00,
2013-01-15 05:06:00,42.2,41.4,30.19,NE,52,0.0,0.0,97,0.08,,---,0.33,0.00,VWS V14.01,2013-01-15 10:06:00,
2013-01-15 05:11:00,42.2,41.4,30.20,WSW,247,0.0,3.0,97,0.09,,---,0.34,0.00,VWS V14.01,2013-01-15 10:11:00,
2013-01-15 05:16:00,42.2,41.4,30.18,WSW,246,0.0,3.0,97,0.11,,---,0.36,0.00,VWS V14.01,2013-01-15 10:16:00,
2013-01-15 05:21:00,42.2,41.4,30.19,WSW,257,0.0,3.0,97,0.12,,---,0.37,0.00,VWS V14.01,2013-01-15 10:21:00,
2013-01-15 05:26:00,42.2,41.4,30.18,WSW,257,0.0,3.0,97,0.13,,---,0.38,0.00,VWS V14.01,2013-01-15 10:26:00,
2013-01-15 05:30:00,42.2,41.4,30.19,WSW,257,0.0,3.0,97,0.15,,---,0.40,0.00,VWS V14.01,2013-01-15 10:30:00,
2013-01-15 05:31:00,42.2,41.4,30.19,WSW,257,0.0,3.0,97,0.15,,---,0.40,0.00,VWS V14.01,2013-01-15 10:31:00,
2013-01-15 05:36:00,42.2,41.4,30.19,WSW,257,0.0,0.0,97,0.14,,---,0.41,0.00,VWS V14.01,2013-01-15 10:36:00,
2013-01-15 05:41:00,42.2,41.4,30.19,WSW,257,2.0,2.0,97,0.15,,---,0.42,0.00,VWS V14.01,2013-01-15 10:41:00,
2013-01-15 05:46:00,42.2,41.4,30.19,WSW,257,0.0,2.0,97,0.17,,---,0.44,0.00,VWS V14.01,2013-01-15 10:46:00,
2013-01-15 05:51:00,42.2,41.4,30.18,WSW,257,0.0,2.0,97,0.18,,---,0.45,0.00,VWS V14.01,2013-01-15 10:51:00,
2013-01-15 05:56:00,42.2,41.4,30.18,WSW,257,0.0,2.0,97,0.18,,---,0.45,0.00,VWS V14.01,2013-01-15 10:56:00,
2013-01-15 06:00:00,42.2,41.4,30.18,WSW,257,0.0,2.0,97,0.19,,---,0.46,0.00,VWS V14.01,2013-01-15 11:00:00,
2013-01-15 06:01:00,42.2,41.4,30.18,WSW,257,0.0,2.0,97,0.19,,---,0.46,0.00,VWS V14.01,2013-01-15 11:01:00,
2013-01-15 06:06:00,42.2,41.4,30.18,WSW,257,0.0,0.0,97,0.13,,---,0.46,0.00,VWS V14.01,2013-01-15 11:06:00,
2013-01-15 06:11:00,42.3,41.5,30.18,WSW,257,0.0,0.0,97,0.13,,---,0.46,0.00,VWS V14.01,2013-01-15 11:11:00,
2013-01-15 06:16:00,42.3,41.5,30.19,WSW,257,0.0,0.0,97,0.14,,---,0.47,0.00,VWS V14.01,2013-01-15 11:16:00,
2013-01-15 06:21:00,42.3,41.5,30.19,WSW,257,0.0,0.0,97,0.14,,---,0.47,0.00,VWS V14.01,2013-01-15 11:21:00,
2013-01-15 06:26:00,42.3,41.5,30.17,WSW,257,0.0,0.0,97,0.15,,---,0.48,0.00,VWS V14.01,2013-01-15 11:26:00,
2013-01-15 06:30:00,42.4,41.6,30.17,WSW,257,0.0,0.0,97,0.15,,---,0.48,0.00,VWS V14.01,2013-01-15 11:30:00,
2013-01-15 06:31:00,42.4,41.6,30.17,WSW,257,0.0,0.0,97,0.15,,---,0.48,0.00,VWS V14.01,2013-01-15 11:31:00,
2013-01-15 06:36:00,42.4,41.6,30.18,WSW,257,0.0,2.0,97,0.08,,---,0.48,0.00,VWS V14.01,2013-01-15 11:36:00,
2013-01-15 06:41:00,42.5,41.7,30.20,West,261,0.0,3.0,97,0.08,,---,0.48,0.00,VWS V14.01,2013-01-15 11:41:00,
2013-01-15 06:46:00,42.6,41.8,30.21,WSW,245,2.0,3.0,97,0.09,,---,0.49,0.00,VWS V14.01,2013-01-15 11:46:00,
2013-01-15 06:51:00,42.6,41.8,30.21,WSW,253,0.0,3.0,97,0.11,,---,0.51,0.00,VWS V14.01,2013-01-15 11:51:00,
2013-01-15 06:56:00,42.7,41.9,30.23,WSW,253,3.0,3.0,97,0.13,,---,0.53,0.00,VWS V14.01,2013-01-15 11:56:00,
2013-01-15 07:00:00,42.6,41.8,30.23,WSW,252,0.0,3.0,97,0.18,,---,0.58,0.00,VWS V14.01,2013-01-15 12:00:00,
2013-01-15 07:01:00,42.6,41.8,30.23,WSW,252,0.0,3.0,97,0.17,,---,0.57,0.00,VWS V14.01,2013-01-15 12:01:00,
2013-01-15 07:06:00,42.5,41.7,30.25,WSW,254,4.0,6.0,97,0.16,,---,0.62,0.00,VWS V14.01,2013-01-15 12:06:00,
2013-01-15 07:11:00,42.5,41.7,30.23,East,94,3.0,7.0,97,0.19,,---,0.65,0.00,VWS V14.01,2013-01-15 12:11:00,
2013-01-15 07:16:00,42.5,41.7,30.21,ESE,115,3.0,7.0,97,0.22,,---,0.68,0.00,VWS V14.01,2013-01-15 12:16:00,
2013-01-15 07:21:00,42.6,41.8,30.22,NNW,343,0.0,8.0,97,0.27,,---,0.73,0.00,VWS V14.01,2013-01-15 12:21:00,
2013-01-15 07:26:00,42.6,41.8,30.22,NNW,343,0.0,8.0,97,0.29,,---,0.75,0.00,VWS V14.01,2013-01-15 12:26:00,
2013-01-15 07:30:00,42.6,41.8,30.22,NNW,343,0.0,8.0,97,0.31,,---,0.77,0.00,VWS V14.01,2013-01-15 12:30:00,
2013-01-15 07:32:00,42.7,41.9,30.22,NNW,343,0.0,8.0,97,0.31,,---,0.77,0.00,VWS V14.01,2013-01-15 12:32:00,
2013-01-15 07:37:00,42.7,41.9,30.23,West,259,2.0,4.0,97,0.31,,---,0.79,0.00,VWS V14.01,2013-01-15 12:37:00,
2013-01-15 07:42:00,42.8,42.0,30.23,West,259,0.0,4.0,97,0.32,,---,0.80,0.00,VWS V14.01,2013-01-15 12:42:00,
2013-01-15 07:47:00,42.9,42.1,30.24,West,259,0.0,4.0,97,0.33,,---,0.81,0.00,VWS V14.01,2013-01-15 12:47:00,
2013-01-15 07:52:00,42.9,42.1,30.24,West,259,0.0,4.0,97,0.35,,---,0.83,0.00,VWS V14.01,2013-01-15 12:52:00,
2013-01-15 07:57:00,42.9,42.1,30.24,West,259,0.0,4.0,97,0.36,,---,0.84,7.00,VWS V14.01,2013-01-15 12:57:00,
2013-01-15 08:00:00,43.0,42.2,30.24,West,259,0.0,4.0,97,0.37,,---,0.85,5.00,VWS V14.01,2013-01-15 13:00:00,
2013-01-15 08:02:00,43.0,42.2,30.24,West,259,0.0,4.0,97,0.37,,---,0.85,5.00,VWS V14.01,2013-01-15 13:02:00,
2013-01-15 08:07:00,43.0,42.2,30.24,West,259,0.0,0.0,97,0.28,,---,0.86,7.00,VWS V14.01,2013-01-15 13:07:00,
2013-01-15 08:12:00,43.1,42.3,30.25,West,259,0.0,0.0,97,0.29,,---,0.87,11.00,VWS V14.01,2013-01-15 13:12:00,
2013-01-15 08:17:00,43.1,42.3,30.25,West,259,0.0,0.0,97,0.29,,---,0.87,12.00,VWS V14.01,2013-01-15 13:17:00,
2013-01-15 08:22:00,43.1,42.3,30.25,West,259,0.0,0.0,97,0.30,,---,0.88,12.00,VWS V14.01,2013-01-15 13:22:00,
2013-01-15 08:27:00,43.1,42.3,30.25,West,259,0.0,0.0,97,0.30,,---,0.88,11.00,VWS V14.01,2013-01-15 13:27:00,
2013-01-15 08:30:00,43.1,42.3,30.25,West,259,0.0,0.0,97,0.31,,---,0.89,9.00,VWS V14.01,2013-01-15 13:30:00,
2013-01-15 08:32:00,43.1,42.3,30.25,West,259,0.0,0.0,97,0.31,,---,0.89,9.00,VWS V14.01,2013-01-15 13:32:00,
2013-01-15 08:37:00,43.1,42.3,30.25,West,259,0.0,0.0,97,0.12,,---,0.89,12.00,VWS V14.01,2013-01-15 13:37:00,
2013-01-15 08:42:00,43.1,42.3,30.26,West,259,0.0,0.0,97,0.13,,---,0.90,12.00,VWS V14.01,2013-01-15 13:42:00,
2013-01-15 08:47:00,43.1,42.3,30.26,West,259,0.0,0.0,97,0.14,,---,0.91,11.00,VWS V14.01,2013-01-15 13:47:00,
2013-01-15 08:52:00,43.1,42.3,30.26,West,259,0.0,1.0,97,0.15,,---,0.92,12.00,VWS V14.01,2013-01-15 13:52:00,
2013-01-15 08:57:00,43.2,42.4,30.27,West,259,0.0,1.0,97,0.17,,---,0.94,16.00,VWS V14.01,2013-01-15 13:57:00,
2013-01-15 09:00:00,43.2,42.4,30.27,West,259,0.0,1.0,97,0.18,,---,0.95,16.00,VWS V14.01,2013-01-15 14:00:00,
2013-01-15 09:02:00,43.2,42.4,30.27,West,259,0.0,1.0,97,0.18,,---,0.95,16.00,VWS V14.01,2013-01-15 14:02:00,
2013-01-15 09:07:00,43.2,42.4,30.27,West,259,0.0,0.0,97,0.12,,---,0.97,18.00,VWS V14.01,2013-01-15 14:07:00,
2013-01-15 09:12:00,43.2,42.4,30.26,West,259,0.0,0.0,97,0.14,,---,0.99,21.00,VWS V14.01,2013-01-15 14:12:00,
2013-01-15 09:17:00,43.2,42.4,30.27,West,259,0.0,0.0,97,0.14,,---,0.99,19.00,VWS V14.01,2013-01-15 14:17:00,
2013-01-15 09:22:00,43.2,42.4,30.28,West,259,0.0,0.0,97,0.15,,---,1.00,16.00,VWS V14.01,2013-01-15 14:22:00,
2013-01-15 09:27:00,43.1,42.3,30.27,NW,311,0.0,1.0,97,0.16,,---,1.01,35.00,VWS V14.01,2013-01-15 14:27:00,
2013-01-15 09:30:00,43.2,42.4,30.26,North,349,0.0,2.0,97,0.18,,---,1.03,42.00,VWS V14.01,2013-01-15 14:30:00,
2013-01-15 09:32:00,43.2,42.4,30.26,North,349,0.0,2.0,97,0.18,,---,1.03,42.00,VWS V14.01,2013-01-15 14:32:00,
2013-01-15 09:37:00,43.2,42.4,30.26,North,349,0.0,1.0,97,0.14,,---,1.03,46.00,VWS V14.01,2013-01-15 14:37:00,
2013-01-15 09:42:00,43.2,42.4,30.26,North,349,0.0,1.0,97,0.15,,---,1.04,46.00,VWS V14.01,2013-01-15 14:42:00,
2013-01-15 09:47:00,43.2,42.4,30.27,North,349,0.0,1.0,97,0.16,,---,1.05,33.00,VWS V14.01,2013-01-15 14:47:00,
2013-01-15 09:52:00,43.3,42.5,30.26,North,11,2.0,3.0,97,0.17,,---,1.06,62.00,VWS V14.01,2013-01-15 14:52:00,
2013-01-15 09:57:00,43.3,42.5,30.25,North,11,0.0,3.0,97,0.18,,---,1.07,42.00,VWS V14.01,2013-01-15 14:57:00,
2013-01-15 10:00:00,43.4,42.6,30.26,North,11,0.0,3.0,97,0.18,,---,1.07,30.00,VWS V14.01,2013-01-15 15:00:00,
2013-01-15 10:02:00,43.4,42.6,30.26,North,11,0.0,3.0,97,0.18,,---,1.07,30.00,VWS V14.01,2013-01-15 15:02:00,
2013-01-15 10:07:00,43.4,42.6,30.26,North,5,0.0,0.0,97,0.14,,---,1.09,30.00,VWS V14.01,2013-01-15 15:07:00,
2013-01-15 10:12:00,43.4,42.6,30.26,North,5,0.0,1.0,97,0.16,,---,1.11,35.00,VWS V14.01,2013-01-15 15:12:00,
2013-01-15 10:17:00,43.3,42.5,30.26,North,5,0.0,1.0,97,0.18,,---,1.13,35.00,VWS V14.01,2013-01-15 15:17:00,
2013-01-15 10:22:00,43.3,42.5,30.26,North,5,0.0,1.0,97,0.19,,---,1.14,51.00,VWS V14.01,2013-01-15 15:22:00,
2013-01-15 10:27:00,43.3,42.5,30.26,North,5,0.0,1.0,97,0.20,,---,1.15,49.00,VWS V14.01,2013-01-15 15:27:00,
2013-01-15 10:30:00,43.3,42.5,30.26,North,5,0.0,1.0,97,0.21,,---,1.16,42.00,VWS V14.01,2013-01-15 15:30:00,
2013-01-15 10:32:00,43.3,42.5,30.26,North,5,0.0,1.0,97,0.21,,---,1.16,42.00,VWS V14.01,2013-01-15 15:32:00,
2013-01-15 10:37:00,43.3,42.5,30.26,North,5,0.0,0.0,97,0.14,,---,1.17,44.00,VWS V14.01,2013-01-15 15:37:00,
2013-01-15 10:42:00,43.3,42.5,30.26,North,5,0.0,0.0,97,0.15,,---,1.18,37.00,VWS V14.01,2013-01-15 15:42:00,
2013-01-15 10:47:00,43.4,42.6,30.26,North,5,0.0,0.0,97,0.16,,---,1.19,37.00,VWS V14.01,2013-01-15 15:47:00,
2013-01-15 10:52:00,43.4,42.6,30.26,North,5,0.0,0.0,97,0.16,,---,1.19,37.00,VWS V14.01,2013-01-15 15:52:00,
2013-01-15 10:57:00,43.4,42.6,30.26,North,5,0.0,0.0,97,0.18,,---,1.21,39.00,VWS V14.01,2013-01-15 15:57:00,
2013-01-15 11:00:00,43.4,42.6,30.26,North,5,0.0,0.0,97,0.19,,---,1.22,39.00,VWS V14.01,2013-01-15 16:00:00,
2013-01-15 11:02:00,43.4,42.6,30.26,North,5,0.0,0.0,97,0.15,,---,1.22,39.00,VWS V14.01,2013-01-15 16:02:00,
2013-01-15 11:07:00,43.5,42.7,30.25,North,5,0.0,0.0,97,0.17,,---,1.24,49.00,VWS V14.01,2013-01-15 16:07:00,
2013-01-15 11:12:00,43.5,42.7,30.25,North,5,0.0,1.0,97,0.18,,---,1.25,60.00,VWS V14.01,2013-01-15 16:12:00,
2013-01-15 11:17:00,43.5,42.7,30.25,North,5,0.0,1.0,97,0.19,,---,1.26,58.00,VWS V14.01,2013-01-15 16:17:00,
2013-01-15 11:22:00,43.5,42.7,30.25,North,5,0.0,1.0,97,0.20,,---,1.27,54.00,VWS V14.01,2013-01-15 16:22:00,
2013-01-15 11:27:00,43.6,42.8,30.24,North,5,0.0,1.0,97,0.20,,---,1.27,77.00,VWS V14.01,2013-01-15 16:27:00,
2013-01-15 11:30:00,43.6,42.8,30.24,North,5,0.0,1.0,97,0.20,,---,1.27,72.00,VWS V14.01,2013-01-15 16:30:00,
2013-01-15 11:32:00,43.6,42.8,30.24,North,5,0.0,0.0,97,0.11,,---,1.27,72.00,VWS V14.01,2013-01-15 16:32:00,
2013-01-15 11:37:00,43.6,42.8,30.24,North,5,0.0,0.0,97,0.11,,---,1.27,56.00,VWS V14.01,2013-01-15 16:37:00,
2013-01-15 11:42:00,43.7,42.9,30.23,North,5,0.0,0.0,97,0.12,,---,1.28,51.00,VWS V14.01,2013-01-15 16:42:00,
2013-01-15 11:47:00,43.8,43.0,30.24,North,5,0.0,1.0,97,0.12,,---,1.28,35.00,VWS V14.01,2013-01-15 16:47:00,
2013-01-15 11:52:00,43.8,43.0,30.23,North,5,0.0,2.0,97,0.12,,---,1.28,40.00,VWS V14.01,2013-01-15 16:52:00,
2013-01-15 11:57:00,43.8,43.0,30.23,North,5,0.0,2.0,97,0.12,,---,1.28,46.00,VWS V14.01,2013-01-15 16:57:00,
2013-01-15 12:00:00,43.8,43.0,30.24,North,5,0.0,2.0,97,0.12,,---,1.28,32.00,VWS V14.01,2013-01-15 17:00:00,
2013-01-15 12:02:00,43.8,43.0,30.23,North,5,0.0,0.0,97,0.06,,---,1.28,32.00,VWS V14.01,2013-01-15 17:02:00,
2013-01-15 12:07:00,43.8,43.0,30.24,North,5,0.0,0.0,97,0.07,,---,1.29,25.00,VWS V14.01,2013-01-15 17:07:00,
2013-01-15 12:12:00,43.8,43.0,30.23,North,5,0.0,0.0,97,0.07,,---,1.29,37.00,VWS V14.01,2013-01-15 17:12:00,
2013-01-15 12:17:00,43.8,43.0,30.23,North,5,0.0,0.0,97,0.08,,---,1.30,35.00,VWS V14.01,2013-01-15 17:17:00,
2013-01-15 12:22:00,43.9,43.1,30.22,North,5,0.0,0.0,97,0.08,,---,1.30,44.00,VWS V14.01,2013-01-15 17:22:00,
2013-01-15 12:27:00,44.0,43.2,30.22,North,5,0.0,0.0,97,0.08,,---,1.30,39.00,VWS V14.01,2013-01-15 17:27:00,
2013-01-15 12:30:00,44.0,43.2,30.22,North,5,0.0,0.0,97,0.09,,---,1.31,32.00,VWS V14.01,2013-01-15 17:30:00,
2013-01-15 12:32:00,44.0,43.2,30.22,North,5,0.0,0.0,97,0.04,,---,1.31,32.00,VWS V14.01,2013-01-15 17:32:00,
2013-01-15 12:37:00,44.0,43.2,30.22,North,5,0.0,0.0,97,0.04,,---,1.31,37.00,VWS V14.01,2013-01-15 17:37:00,
2013-01-15 12:42:00,44.1,43.3,30.22,North,5,0.0,0.0,97,0.04,,---,1.31,33.00,VWS V14.01,2013-01-15 17:42:00,
2013-01-15 12:47:00,44.1,43.3,30.22,SSE,151,0.0,0.0,97,0.04,,---,1.31,30.00,VWS V14.01,2013-01-15 17:47:00,
2013-01-15 12:52:00,44.0,43.2,30.22,SSE,155,0.0,0.0,97,0.04,,---,1.31,32.00,VWS V14.01,2013-01-15 17:52:00,
2013-01-15 12:57:00,44.0,43.2,30.23,SSE,154,0.0,1.0,97,0.05,,---,1.32,30.00,VWS V14.01,2013-01-15 17:57:00,
2013-01-15 13:00:00,43.9,43.1,30.23,SSE,154,0.0,1.0,97,0.05,,---,1.32,35.00,VWS V14.01,2013-01-15 18:00:00,
2013-01-15 13:02:00,43.9,43.1,30.23,SSE,154,0.0,1.0,97,0.05,,---,1.32,35.00,VWS V14.01,2013-01-15 18:02:00,
2013-01-15 13:07:00,43.8,43.0,30.22,SSE,154,0.0,0.0,97,0.05,,---,1.33,37.00,VWS V14.01,2013-01-15 18:07:00,
2013-01-15 13:12:00,43.6,42.8,30.21,SSE,154,0.0,0.0,97,0.07,,---,1.35,49.00,VWS V14.01,2013-01-15 18:12:00,
2013-01-15 13:17:00,43.4,42.6,30.21,SE,142,0.0,0.0,97,0.07,,---,1.35,44.00,VWS V14.01,2013-01-15 18:17:00,
2013-01-15 13:22:00,43.3,42.5,30.21,SE,142,0.0,0.0,97,0.08,,---,1.36,51.00,VWS V14.01,2013-01-15 18:22:00,
2013-01-15 13:27:00,43.2,42.4,30.21,SE,142,0.0,0.0,97,0.09,,---,1.37,53.00,VWS V14.01,2013-01-15 18:27:00,
2013-01-15 13:30:00,43.0,42.2,30.21,SE,142,0.0,0.0,97,0.09,,---,1.37,44.00,VWS V14.01,2013-01-15 18:30:00,
2013-01-15 13:32:00,43.0,42.2,30.21,SE,142,0.0,0.0,97,0.06,,---,1.37,46.00,VWS V14.01,2013-01-15 18:32:00,
2013-01-15 13:37:00,42.9,42.1,30.20,SE,142,0.0,0.0,97,0.07,,---,1.38,53.00,VWS V14.01,2013-01-15 18:37:00,
2013-01-15 13:42:00,42.7,41.9,30.20,SE,142,0.0,1.0,97,0.07,,---,1.38,49.00,VWS V14.01,2013-01-15 18:42:00,
2013-01-15 13:47:00,42.5,41.7,30.20,SE,142,0.0,1.0,97,0.07,,---,1.38,47.00,VWS V14.01,2013-01-15 18:47:00,
2013-01-15 13:52:00,42.4,41.6,30.20,SE,142,0.0,1.0,97,0.07,,---,1.38,40.00,VWS V14.01,2013-01-15 18:52:00,
2013-01-15 13:57:00,42.3,41.5,30.20,SE,142,0.0,1.0,97,0.07,,---,1.38,37.00,VWS V14.01,2013-01-15 18:57:00,
2013-01-15 14:00:00,42.3,41.5,30.20,SE,142,0.0,1.0,97,0.08,,---,1.39,25.00,VWS V14.01,2013-01-15 19:00:00,
2013-01-15 14:02:00,42.3,41.5,30.20,SE,142,0.0,0.0,97,0.07,,---,1.39,25.00,VWS V14.01,2013-01-15 19:02:00,
2013-01-15 14:07:00,42.2,41.4,30.20,SE,142,0.0,0.0,97,0.07,,---,1.39,25.00,VWS V14.01,2013-01-15 19:07:00,
2013-01-15 14:12:00,42.2,41.4,30.20,SE,142,0.0,0.0,97,0.07,,---,1.39,19.00,VWS V14.01,2013-01-15 19:12:00,
2013-01-15 14:17:00,42.2,41.4,30.20,SE,142,0.0,0.0,97,0.07,,---,1.39,19.00,VWS V14.01,2013-01-15 19:17:00,
2013-01-15 14:22:00,42.1,41.3,30.20,SE,142,0.0,0.0,97,0.07,,---,1.39,14.00,VWS V14.01,2013-01-15 19:22:00,
2013-01-15 14:27:00,42.1,41.3,30.20,SE,142,0.0,0.0,97,0.07,,---,1.39,14.00,VWS V14.01,2013-01-15 19:27:00,
2013-01-15 14:30:00,42.0,41.2,30.20,SE,142,0.0,0.0,97,0.07,,---,1.39,18.00,VWS V14.01,2013-01-15 19:30:00,
2013-01-15 14:32:00,42.0,41.2,30.20,SE,142,0.0,0.0,97,0.02,,---,1.39,18.00,VWS V14.01,2013-01-15 19:32:00,
2013-01-15 14:37:00,41.9,41.1,30.21,SE,142,0.0,0.0,97,0.02,,---,1.39,16.00,VWS V14.01,2013-01-15 19:37:00,
2013-01-15 14:42:00,41.9,41.1,30.21,SE,142,0.0,0.0,97,0.03,,---,1.40,18.00,VWS V14.01,2013-01-15 19:42:00,
2013-01-15 14:47:00,41.8,41.0,30.21,SE,142,0.0,0.0,97,0.03,,---,1.40,28.00,VWS V14.01,2013-01-15 19:47:00,
2013-01-15 14:52:00,41.8,41.0,30.20,SE,142,0.0,0.0,97,0.04,,---,1.41,33.00,VWS V14.01,2013-01-15 19:52:00,
2013-01-15 14:57:00,41.8,41.0,30.20,SE,142,0.0,0.0,97,0.05,,---,1.42,47.00,VWS V14.01,2013-01-15 19:57:00,
2013-01-15 15:00:00,41.8,41.0,30.20,SE,142,0.0,0.0,97,0.06,,---,1.43,51.00,VWS V14.01,2013-01-15 20:00:00,
2013-01-15 15:02:00,41.7,40.9,30.20,SE,142,0.0,0.0,97,0.04,,---,1.43,54.00,VWS V14.01,2013-01-15 20:02:00,
2013-01-15 15:07:00,41.7,40.9,30.20,SE,142,0.0,0.0,97,0.04,,---,1.43,44.00,VWS V14.01,2013-01-15 20:07:00,
2013-01-15 15:12:00,41.7,40.9,30.20,SE,142,0.0,0.0,97,0.04,,---,1.43,33.00,VWS V14.01,2013-01-15 20:12:00,
2013-01-15 15:17:00,41.7,40.9,30.20,SE,142,0.0,0.0,97,0.04,,---,1.43,25.00,VWS V14.01,2013-01-15 20:17:00,
2013-01-15 15:22:00,41.6,40.8,30.20,SE,142,0.0,0.0,97,0.05,,---,1.44,21.00,VWS V14.01,2013-01-15 20:22:00,
2013-01-15 15:27:00,41.6,40.8,30.20,SE,142,0.0,0.0,97,0.05,,---,1.44,18.00,VWS V14.01,2013-01-15 20:27:00,
2013-01-15 15:30:00,41.6,40.8,30.21,SE,142,0.0,0.0,97,0.05,,---,1.44,26.00,VWS V14.01,2013-01-15 20:30:00,
2013-01-15 15:33:00,41.6,40.8,30.20,SE,142,0.0,0.0,97,0.06,,---,1.45,30.00,VWS V14.01,2013-01-15 20:33:00,
2013-01-15 15:38:00,41.6,40.8,30.20,SE,142,0.0,0.0,97,0.07,,---,1.46,21.00,VWS V14.01,2013-01-15 20:38:00,
2013-01-15 15:43:00,41.5,40.7,30.21,SE,142,0.0,1.0,97,0.08,,---,1.47,16.00,VWS V14.01,2013-01-15 20:43:00,
2013-01-15 15:48:00,41.4,40.6,30.21,SE,142,0.0,1.0,97,0.08,,---,1.47,16.00,VWS V14.01,2013-01-15 20:48:00,
2013-01-15 15:53:00,41.3,40.5,30.21,SE,142,0.0,1.0,97,0.09,,---,1.48,14.00,VWS V14.01,2013-01-15 20:53:00,
2013-01-15 15:58:00,41.2,40.4,30.21,SE,142,0.0,1.0,97,0.10,,---,1.49,14.00,VWS V14.01,2013-01-15 20:58:00,
2013-01-15 16:00:00,41.2,40.4,30.20,SE,142,0.0,1.0,97,0.11,,---,1.50,21.00,VWS V14.01,2013-01-15 21:00:00,
2013-01-15 16:03:00,41.2,40.4,30.20,SE,142,0.0,0.0,97,0.07,,---,1.50,19.00,VWS V14.01,2013-01-15 21:03:00,
2013-01-15 16:08:00,41.2,40.4,30.20,SE,142,0.0,0.0,97,0.08,,---,1.51,12.00,VWS V14.01,2013-01-15 21:08:00,
2013-01-15 16:13:00,41.1,40.3,30.20,SE,142,0.0,0.0,97,0.09,,---,1.52,11.00,VWS V14.01,2013-01-15 21:13:00,
2013-01-15 16:18:00,41.1,40.3,30.20,SE,142,0.0,0.0,97,0.10,,---,1.53,5.00,VWS V14.01,2013-01-15 21:18:00,
2013-01-15 16:23:00,41.1,40.3,30.21,SE,142,0.0,1.0,97,0.11,,---,1.54,7.00,VWS V14.01,2013-01-15 21:23:00,
2013-01-15 16:28:00,41.1,40.3,30.22,SE,142,0.0,1.0,97,0.13,,---,1.56,0.00,VWS V14.01,2013-01-15 21:28:00,
2013-01-15 16:30:00,41.1,40.3,30.21,SE,142,0.0,1.0,97,0.14,,---,1.57,5.00,VWS V14.01,2013-01-15 21:30:00,
2013-01-15 16:33:00,41.0,40.2,30.21,SE,142,0.0,0.0,97,0.13,,---,1.57,7.00,VWS V14.01,2013-01-15 21:33:00,
2013-01-15 16:38:00,41.0,40.2,30.21,SE,142,0.0,0.0,97,0.14,,---,1.58,5.00,VWS V14.01,2013-01-15 21:38:00,
2013-01-15 16:43:00,41.0,40.2,30.20,SE,142,0.0,0.0,97,0.15,,---,1.59,5.00,VWS V14.01,2013-01-15 21:43:00,
2013-01-15 16:48:00,41.0,40.2,30.20,SE,142,0.0,0.0,97,0.17,,---,1.61,5.00,VWS V14.01,2013-01-15 21:48:00,
2013-01-15 16:53:00,41.0,40.2,30.20,SE,142,0.0,0.0,97,0.17,,---,1.61,0.00,VWS V14.01,2013-01-15 21:53:00,
2013-01-15 16:58:00,40.9,40.1,30.20,SE,142,0.0,0.0,97,0.19,,---,1.63,0.00,VWS V14.01,2013-01-15 21:58:00,
2013-01-15 17:00:00,40.9,40.1,30.20,SE,142,0.0,0.0,97,0.20,,---,1.64,0.00,VWS V14.01,2013-01-15 22:00:00,
2013-01-15 17:03:00,40.9,40.1,30.20,SE,142,0.0,0.0,97,0.14,,---,1.64,0.00,VWS V14.01,2013-01-15 22:03:00,
2013-01-15 17:08:00,40.9,40.1,30.21,SE,142,0.0,0.0,97,0.16,,---,1.66,0.00,VWS V14.01,2013-01-15 22:08:00,
2013-01-15 17:13:00,40.9,40.1,30.20,SE,142,0.0,0.0,97,0.17,,---,1.67,0.00,VWS V14.01,2013-01-15 22:13:00,
2013-01-15 17:18:00,40.8,40.0,30.21,SE,142,0.0,0.0,97,0.19,,---,1.69,0.00,VWS V14.01,2013-01-15 22:18:00,
2013-01-15 17:23:00,40.8,40.0,30.20,SE,142,0.0,0.0,97,0.20,,---,1.70,0.00,VWS V14.01,2013-01-15 22:23:00,
2013-01-15 17:28:00,40.8,40.0,30.20,SE,142,0.0,0.0,97,0.21,,---,1.71,0.00,VWS V14.01,2013-01-15 22:28:00,
2013-01-15 17:30:00,40.7,39.9,30.20,SE,142,0.0,0.0,97,0.22,,---,1.72,0.00,VWS V14.01,2013-01-15 22:30:00,
2013-01-15 17:33:00,40.7,39.9,30.20,SE,142,0.0,0.0,97,0.15,,---,1.72,0.00,VWS V14.01,2013-01-15 22:33:00,
2013-01-15 17:38:00,40.7,39.9,30.20,SE,142,0.0,0.0,97,0.16,,---,1.73,0.00,VWS V14.01,2013-01-15 22:38:00,
2013-01-15 17:43:00,40.6,39.8,30.20,SE,142,0.0,0.0,97,0.18,,---,1.75,0.00,VWS V14.01,2013-01-15 22:43:00,
2013-01-15 17:48:00,40.5,39.7,30.18,SE,142,0.0,0.0,97,0.18,,---,1.75,0.00,VWS V14.01,2013-01-15 22:48:00,
2013-01-15 17:53:00,40.5,39.7,30.18,SE,142,0.0,0.0,97,0.19,,---,1.76,0.00,VWS V14.01,2013-01-15 22:53:00,
2013-01-15 17:58:00,40.4,39.6,30.18,SE,142,0.0,0.0,97,0.20,,---,1.77,0.00,VWS V14.01,2013-01-15 22:58:00,
2013-01-15 18:00:00,40.4,39.6,30.18,SSW,194,0.0,0.0,97,0.20,,---,1.77,0.00,VWS V14.01,2013-01-15 23:00:00,
2013-01-15 18:03:00,40.4,39.6,30.18,SSW,194,0.0,2.0,97,0.13,,---,1.77,0.00,VWS V14.01,2013-01-15 23:03:00,
2013-01-15 18:08:00,40.2,39.4,30.18,SW,222,0.0,4.0,97,0.14,,---,1.78,0.00,VWS V14.01,2013-01-15 23:08:00,
2013-01-15 18:13:00,40.1,39.3,30.18,SW,222,0.0,4.0,97,0.15,,---,1.79,0.00,VWS V14.01,2013-01-15 23:13:00,
2013-01-15 18:18:00,40.0,39.2,30.18,SW,222,0.0,4.0,97,0.16,,---,1.80,0.00,VWS V14.01,2013-01-15 23:18:00,
2013-01-15 18:23:00,39.9,39.1,30.18,SW,222,0.0,4.0,97,0.17,,---,1.81,0.00,VWS V14.01,2013-01-15 23:23:00,
2013-01-15 18:28:00,39.8,39.0,30.18,SW,222,0.0,4.0,97,0.18,,---,1.82,0.00,VWS V14.01,2013-01-15 23:28:00,
2013-01-15 18:30:00,39.8,39.0,30.19,SW,222,0.0,4.0,97,0.18,,---,1.82,0.00,VWS V14.01,2013-01-15 23:30:00,
2013-01-15 18:33:00,39.7,38.9,30.19,SW,222,0.0,1.0,97,0.10,,---,1.82,0.00,VWS V14.01,2013-01-15 23:33:00,
2013-01-15 18:39:00,39.7,38.9,30.21,SW,234,2.0,3.0,97,0.11,,---,1.83,0.00,VWS V14.01,2013-01-15 23:39:00,
2013-01-15 18:44:00,39.6,38.8,30.24,West,271,4.0,4.0,97,0.12,,---,1.84,0.00,VWS V14.01,2013-01-15 23:44:00,
2013-01-15 18:49:00,39.5,38.7,30.25,SSW,202,1.0,6.0,97,0.14,,---,1.86,0.00,VWS V14.01,2013-01-15 23:49:00,
2013-01-15 18:54:00,39.4,38.6,30.23,South,170,0.0,6.0,97,0.17,,---,1.89,0.00,VWS V14.01,2013-01-15 23:54:00,
2013-01-15 18:59:00,39.3,38.5,30.23,SW,224,0.0,6.0,97,0.19,,---,1.91,0.00,VWS V14.01,2013-01-15 23:59:00,
2013-01-15 19:00:00,39.2,38.4,30.24,SW,224,0.0,6.0,97,0.19,,---,1.91,0.00,VWS V14.01,2013-01-16 00:00:00,
2013-01-15 19:04:00,39.2,38.4,30.23,SW,224,0.0,1.0,97,0.15,,---,1.92,0.00,VWS V14.01,2013-01-16 00:04:00,
2013-01-15 19:09:00,39.1,38.3,30.22,SW,224,0.0,1.0,97,0.16,,---,1.93,0.00,VWS V14.01,2013-01-16 00:09:00,
2013-01-15 19:14:00,39.1,38.3,30.21,SW,224,0.0,1.0,97,0.17,,---,1.94,0.00,VWS V14.01,2013-01-16 00:14:00,
2013-01-15 19:19:00,39.1,38.3,30.20,West,280,0.0,1.0,97,0.18,,---,1.95,0.00,VWS V14.01,2013-01-16 00:19:00,
2013-01-15 19:24:00,39.1,38.3,30.19,West,281,0.0,1.0,97,0.18,,---,1.95,0.00,VWS V14.01,2013-01-16 00:24:00,
2013-01-15 19:29:00,39.0,38.2,30.18,WNW,294,0.0,1.0,97,0.19,,---,1.96,0.00,VWS V14.01,2013-01-16 00:29:00,
2013-01-15 19:30:00,39.0,38.2,30.18,WNW,294,0.0,1.0,97,0.19,,---,1.96,0.00,VWS V14.01,2013-01-16 00:30:00,
2013-01-15 19:34:00,39.0,38.2,30.18,WNW,294,0.0,0.0,97,0.14,,---,1.96,0.00,VWS V14.01,2013-01-16 00:34:00,
2013-01-15 19:39:00,38.9,38.1,30.18,WNW,294,0.0,0.0,97,0.14,,---,1.96,0.00,VWS V14.01,2013-01-16 00:39:00,
2013-01-15 19:44:00,38.8,38.0,30.19,WNW,294,0.0,0.0,97,0.15,,---,1.97,0.00,VWS V14.01,2013-01-16 00:44:00,
2013-01-15 19:49:00,38.8,38.0,30.18,SSW,194,1.0,3.0,97,0.15,,---,1.97,0.00,VWS V14.01,2013-01-16 00:49:00,
2013-01-15 19:54:00,38.7,37.9,30.19,SSW,194,0.0,3.0,97,0.16,,---,1.98,0.00,VWS V14.01,2013-01-16 00:54:00,
2013-01-15 19:59:00,38.7,37.9,30.20,SSW,194,0.0,3.0,97,0.17,,---,1.99,0.00,VWS V14.01,2013-01-16 00:59:00,
2013-01-15 20:00:00,38.7,37.9,30.19,SSW,194,0.0,3.0,97,0.17,,---,1.99,0.00,VWS V14.01,2013-01-16 01:00:00,
2013-01-15 20:04:00,38.7,37.9,30.19,SSW,194,0.0,0.0,97,0.09,,---,2.00,0.00,VWS V14.01,2013-01-16 01:04:00,
2013-01-15 20:09:00,38.7,37.9,30.19,SSW,194,0.0,0.0,97,0.10,,---,2.01,0.00,VWS V14.01,2013-01-16 01:09:00,
2013-01-15 20:14:00,38.7,37.9,30.19,SSW,194,0.0,0.0,97,0.11,,---,2.02,0.00,VWS V14.01,2013-01-16 01:14:00,
2013-01-15 20:19:00,38.7,37.9,30.19,SSW,194,0.0,0.0,97,0.11,,---,2.02,0.00,VWS V14.01,2013-01-16 01:19:00,
2013-01-15 20:24:00,38.6,37.8,30.18,SSW,194,0.0,0.0,97,0.11,,---,2.02,0.00,VWS V14.01,2013-01-16 01:24:00,
2013-01-15 20:29:00,38.6,37.8,30.17,SSW,194,0.0,0.0,97,0.11,,---,2.02,0.00,VWS V14.01,2013-01-16 01:29:00,
2013-01-15 20:30:00,38.7,37.9,30.17,SSW,194,0.0,0.0,97,0.11,,---,2.02,0.00,VWS V14.01,2013-01-16 01:30:00,
2013-01-15 20:34:00,38.6,37.8,30.17,SSW,194,0.0,0.0,97,0.06,,---,2.02,0.00,VWS V14.01,2013-01-16 01:34:00,
2013-01-15 20:39:00,38.6,37.8,30.17,SSW,194,0.0,0.0,97,0.07,,---,2.03,0.00,VWS V14.01,2013-01-16 01:39:00,
2013-01-15 20:44:00,38.6,37.8,30.17,SSW,194,0.0,0.0,97,0.07,,---,2.03,0.00,VWS V14.01,2013-01-16 01:44:00,
2013-01-15 20:49:00,38.6,37.8,30.17,SSW,194,0.0,0.0,97,0.07,,---,2.03,0.00,VWS V14.01,2013-01-16 01:49:00,
2013-01-15 20:54:00,38.6,37.8,30.16,South,191,0.0,2.0,97,0.07,,---,2.03,0.00,VWS V14.01,2013-01-16 01:54:00,
2013-01-15 20:59:00,38.6,37.8,30.16,South,191,0.0,2.0,97,0.08,,---,2.04,0.00,VWS V14.01,2013-01-16 01:59:00,
2013-01-15 21:00:00,38.5,37.7,30.16,SSW,194,0.0,2.0,97,0.08,,---,2.04,0.00,VWS V14.01,2013-01-16 02:00:00,
2013-01-15 21:04:00,38.5,37.7,30.16,SSW,194,0.0,0.0,97,0.05,,---,2.04,0.00,VWS V14.01,2013-01-16 02:04:00,
2013-01-15 21:09:00,38.5,37.7,30.16,SSE,158,0.0,2.0,97,0.05,,---,2.04,0.00,VWS V14.01,2013-01-16 02:09:00,
2013-01-15 21:14:00,38.6,37.8,30.16,SSE,159,0.0,2.0,97,0.06,,---,2.05,0.00,VWS V14.01,2013-01-16 02:14:00,
2013-01-15 21:19:00,38.5,37.7,30.16,SSE,160,0.0,2.0,97,0.07,,---,2.06,0.00,VWS V14.01,2013-01-16 02:19:00,
2013-01-15 21:24:00,38.5,37.7,30.16,SSE,160,0.0,2.0,97,0.07,,---,2.06,0.00,VWS V14.01,2013-01-16 02:24:00,
2013-01-15 21:29:00,38.5,37.7,30.16,SSE,160,0.0,2.0,97,0.07,,---,2.06,0.00,VWS V14.01,2013-01-16 02:29:00,
2013-01-15 21:30:00,38.5,37.7,30.16,SSE,160,1.0,2.0,97,0.07,,---,2.06,0.00,VWS V14.01,2013-01-16 02:30:00,
2013-01-15 21:34:00,38.5,37.7,30.16,SSE,160,0.0,1.0,97,0.05,,---,2.07,0.00,VWS V14.01,2013-01-16 02:34:00,
2013-01-15 21:39:00,38.4,37.6,30.15,SE,127,0.0,3.0,97,0.05,,---,2.07,0.00,VWS V14.01,2013-01-16 02:39:00,
2013-01-15 21:44:00,38.3,37.5,30.14,SE,125,1.0,3.0,97,0.06,,---,2.08,0.00,VWS V14.01,2013-01-16 02:44:00,
2013-01-15 21:49:00,38.3,37.5,30.14,SE,125,0.0,3.0,97,0.06,,---,2.08,0.00,VWS V14.01,2013-01-16 02:49:00,
2013-01-15 21:54:00,38.3,37.5,30.14,SE,125,0.0,3.0,97,0.06,,---,2.08,0.00,VWS V14.01,2013-01-16 02:54:00,
2013-01-15 21:59:00,38.3,37.5,30.15,SE,126,0.0,3.0,97,0.06,,---,2.08,0.00,VWS V14.01,2013-01-16 02:59:00,
2013-01-15 22:00:00,38.2,37.4,30.15,SE,126,0.0,3.0,97,0.06,,---,2.08,0.00,VWS V14.01,2013-01-16 03:00:00,
2013-01-15 22:04:00,38.2,37.4,30.15,SE,126,0.0,0.0,97,0.04,,---,2.08,0.00,VWS V14.01,2013-01-16 03:04:00,
2013-01-15 22:09:00,38.2,37.4,30.14,SE,125,0.0,3.0,97,0.04,,---,2.08,0.00,VWS V14.01,2013-01-16 03:09:00,
2013-01-15 22:14:00,38.1,37.3,30.15,SE,126,0.0,3.0,97,0.05,,---,2.09,0.00,VWS V14.01,2013-01-16 03:14:00,
2013-01-15 22:19:00,38.1,37.3,30.15,SE,128,0.0,3.0,97,0.05,,---,2.09,0.00,VWS V14.01,2013-01-16 03:19:00,
2013-01-15 22:24:00,38.1,37.3,30.15,SE,128,0.0,3.0,97,0.06,,---,2.10,0.00,VWS V14.01,2013-01-16 03:24:00,
2013-01-15 22:29:00,38.1,37.3,30.15,SE,128,0.0,3.0,97,0.06,,---,2.10,0.00,VWS V14.01,2013-01-16 03:29:00,
2013-01-15 22:30:00,38.0,37.2,30.15,SE,128,0.0,3.0,97,0.06,,---,2.10,0.00,VWS V14.01,2013-01-16 03:30:00,
2013-01-15 22:34:00,38.0,37.2,30.15,SE,128,0.0,0.0,97,0.04,,---,2.10,0.00,VWS V14.01,2013-01-16 03:34:00,
2013-01-15 22:39:00,38.0,37.2,30.15,SE,128,0.0,0.0,97,0.04,,---,2.10,0.00,VWS V14.01,2013-01-16 03:39:00,
2013-01-15 22:44:00,38.1,37.3,30.15,SE,128,0.0,1.0,97,0.05,,---,2.11,0.00,VWS V14.01,2013-01-16 03:44:00,
2013-01-15 22:49:00,38.0,37.2,30.15,SE,128,0.0,1.0,97,0.05,,---,2.11,0.00,VWS V14.01,2013-01-16 03:49:00,
2013-01-15 22:54:00,38.0,37.2,30.15,SE,128,0.0,1.0,97,0.05,,---,2.11,0.00,VWS V14.01,2013-01-16 03:54:00,
2013-01-15 22:59:00,38.0,37.2,30.15,SE,128,0.0,1.0,97,0.05,,---,2.11,0.00,VWS V14.01,2013-01-16 03:59:00,
2013-01-15 23:00:00,38.0,37.2,30.15,South,184,0.0,4.0,97,0.05,,---,2.11,0.00,VWS V14.01,2013-01-16 04:00:00,
2013-01-15 23:04:00,38.0,37.2,30.15,ENE,61,0.0,2.0,97,0.03,,---,2.11,0.00,VWS V14.01,2013-01-16 04:04:00,
2013-01-15 23:09:00,37.9,37.1,30.14,North,5,0.0,3.0,97,0.03,,---,2.11,0.00,VWS V14.01,2013-01-16 04:09:00,
2013-01-15 23:14:00,37.9,37.1,30.14,SSE,161,0.0,3.0,97,0.04,,---,2.12,0.00,VWS V14.01,2013-01-16 04:14:00,
2013-01-15 23:19:00,37.8,37.0,30.14,SE,134,0.0,3.0,97,0.04,,---,2.12,0.00,VWS V14.01,2013-01-16 04:19:00,
2013-01-15 23:24:00,37.7,36.9,30.14,SW,219,0.0,3.0,97,0.04,,---,2.12,0.00,VWS V14.01,2013-01-16 04:24:00,
2013-01-15 23:29:00,37.6,36.8,30.14,SE,141,0.0,3.0,97,0.04,,---,2.12,0.00,VWS V14.01,2013-01-16 04:29:00,
2013-01-15 23:30:00,37.6,36.8,30.14,SE,136,0.0,4.0,97,0.04,,---,2.12,0.00,VWS V14.01,2013-01-16 04:30:00,
2013-01-15 23:34:00,37.6,36.8,30.14,SE,136,0.0,0.0,97,0.02,,---,2.12,0.00,VWS V14.01,2013-01-16 04:34:00,
2013-01-15 23:39:00,37.6,36.8,30.14,SE,136,0.0,1.0,97,0.02,,---,2.12,0.00,VWS V14.01,2013-01-16 04:39:00,
2013-01-15 23:44:00,37.5,36.7,30.14,South,187,0.0,1.0,97,0.02,,---,2.12,0.00,VWS V14.01,2013-01-16 04:44:00,
2013-01-15 23:49:00,37.5,36.7,30.14,West,271,0.0,3.0,97,0.02,,---,2.12,0.00,VWS V14.01,2013-01-16 04:49:00,
2013-01-15 23:54:00,37.5,36.7,30.13,WNW,290,0.0,3.0,97,0.02,,---,2.12,0.00,VWS V14.01,2013-01-16 04:54:00,
2013-01-15 23:59:00,37.5,36.7,30.14,North,9,0.0,4.0,97,0.02,,---,2.12,0.00,VWS V14.01,2013-01-16 04:59:00,